Regional Weather Roundup
Issued by NWS

Home | Current Version | Previous Version | Text Only | Print | Product List | Glossary Off
Versions: 1 2 3 4 5 6 7 8 9 10 11 12 13 14 15 16 17 18 19 20 21 22 23 24 25 26 27 28 29 30 31 32 33 34 35 36 37 38 39 40 41 42 43 44 45 46 47 48 49 50

000
ASUS45 KCYS 251010
RWRWY

WYOMING REGIONAL WEATHER ROUNDUP
NATIONAL WEATHER SERVICE CHEYENNE WY
400 AM MDT THU AUG 25 2016

NOTE:  "FAIR" INDICATES FEW OR NO CLOUDS BELOW 12,000 FEET
WITH NO SIGNIFICANT WEATHER AND/OR OBSTRUCTIONS TO VISIBILITY.

WYZ001-251100-
YELLOWSTONE NATIONAL PARK

CITY           SKY/WX    TMP DP  RH WIND       PRES   REMARKS
LK YELLOWSTONE   N/A     31  31 100 CALM      30.38F
W YELLOWSTONE  NOT AVBL

$$
WYZ002>013-054>058-071-098>099-251100-
NORTHERN WYOMING

CITY           SKY/WX    TMP DP  RH WIND       PRES   REMARKS
JACKSON        FAIR      43  34  70 N12       30.29S
CODY           CLOUDY    48  39  71 NW6       30.33F
GREYBULL       MOCLDY    55  37  50 NW10      30.28R
WORLAND        CLOUDY    53  50  89 W5        30.30F
SHERIDAN       CLOUDY    52  42  69 NW5       30.31F
BUFFALO        CLOUDY    51  38  60 NW6       30.34F
GILLETTE       MOCLDY    50  41  71 NW8       30.31S
HULETT         PTSUNNY   48  41  76 SW5       30.30S
NEWCASTLE      CLOUDY    52  37  58 N9        30.28S

$$
WYZ014>020-022>026-101>103-251100-
CENTRAL WYOMING

CITY           SKY/WX    TMP DP  RH WIND       PRES   REMARKS
BIG PINEY      FAIR      38  22  52 N6        30.32R WCI  33
PINEDALE       FAIR      37  32  81 N5        30.32R WCI  34
DUBOIS         CLOUDY    43  37  81 E9        30.35R
LANDER         CLOUDY    49  43  80 E5        30.33S
RIVERTON       CLOUDY    48  47  96 CALM      30.34F
CASPER         LGT RAIN  47  46  97 N12       30.33S
DOUGLAS        CLOUDY    49  45  86 N12       30.31F

$$
WYZ021-027>030-104>119-251100-
SOUTHERN WYOMING

CITY           SKY/WX    TMP DP  RH WIND       PRES   REMARKS
EVANSTON       FAIR      45  29  53 E6        30.28R
FORT BRIDGER   FAIR      45  32  60 E7        30.32R
ROCK SPRINGS   NOT AVBL
DIXON          FAIR      39  30  71 CALM      30.27R
RAWLINS        CLOUDY    49  40  71 NE13      30.30R
SARATOGA       FAIR      37  37 100 NW5       30.28R WCI  34
LARAMIE        FAIR      45  44  97 SE9       30.28S
CHEYENNE       FAIR      46  43  89 NW7       30.28R
TORRINGTON     FAIR      51  46  83 NE7       30.23F
PINE BLUFFS    FAIR      43  41  93 W12       30.26S

$$



USA.gov is the U.S. government's official web portal to all federal, state and local government web resources and services.